Louisville, KY

7:01 AM EST on February 13, 2016 (GMT -0500)
Louisville International-Standiford

Weather History for KSDF - November, 2011

Change the Weather History Date:

Wednesday, November 9, 2011

  Actual Average Record
Temperature  
Mean Temperature 56 °F 52 °F  
Max Temperature 67 °F 61 °F 77 °F (1975)
Min Temperature 45 °F 42 °F 20 °F (1991)
Degree Days  
Heating Degree Days 9 14  
Month to date heating degree days 91 111  
Since 1 July heating degree days 362 353  
Cooling Degree Days 0 0  
Month to date cooling degree days 0 0  
Year to date cooling degree days 1849 1609  
Growing Degree Days 6 (Base 50)    
Moisture  
Dew Point 46 °F    
Average Humidity 63    
Maximum Humidity 78    
Minimum Humidity 48    
Precipitation  
Precipitation 0.05 in 0.11 in 1.38 in (1895)
Month to date precipitation 0.71 0.98  
Year to date precipitation 55.90 38.47  
Snow  
Snow 0.00 in 0.00 in 0.20 in (1892)
Month to date snowfall 0.0 0.0  
Since 1 July snowfall 0.0 0.1  
Since 1 September snowfall 0.0 0.1  
Snow Depth 0.00 in    
Sea Level Pressure  
Sea Level Pressure 29.95 in    
Wind  
Wind Speed 15 mph (SW)    
Max Wind Speed 28 mph    
Max Gust Speed 36 mph    
Visibility 9 miles    
Events Rain    
T = Trace of Precipitation, MM = Missing Value Source: NWS Daily Summary

Daily Weather History Graph

Daily Weather History Graph

Search for Another Location

Airport or City:

Trip Planner

Search our weather history database for the weather conditions in past years. The results will help you decide how hot, cold, wet, or windy it might be!

Date:

Astronomy

Nov. 09, 2011 Rise Set
Actual Time 7:17 AM EST 5:35 PM EST
Civil Twilight 6:49 AM EST 6:03 PM EST
Nautical Twilight 6:17 AM EST 6:35 PM EST
Astronomical Twilight 5:46 AM EST 7:06 PM EST
Moon 4:47 PM EST (11/9) 6:12 AM EST (11/9)
Length of Visible Light 11h 14m
Length of Day
10h 18m
Waxing Gibbous, 99% of the Moon is Illuminated
Nov 9
Waxing Gibbous
Nov 10
Full
Nov 18
Last Quarter
Nov 25
New
Dec 2
First Quarter

Hourly Weather History & Observations

Time (EST) Temp. Windchill Dew Point Humidity Pressure Visibility Wind Dir Wind Speed Gust Speed Precip Events Conditions
12:56 AM 59.0 °F - 46.9 °F 64% 29.99 in 10.0 mi ESE 4.6 mph - N/A   Mostly Cloudy
1:56 AM 59.0 °F - 48.0 °F 67% 29.96 in 10.0 mi East 5.8 mph - N/A   Overcast
2:56 AM 60.1 °F - 48.9 °F 67% 29.94 in 10.0 mi SE 6.9 mph - N/A   Overcast
3:56 AM 63.0 °F - 48.9 °F 60% 29.93 in 10.0 mi SSE 11.5 mph - N/A   Overcast
4:56 AM 64.0 °F - 48.9 °F 58% 29.90 in 10.0 mi SSE 15.0 mph - 0.00 in   Overcast
5:56 AM 60.1 °F - 53.1 °F 78% 29.88 in 10.0 mi SSE 11.5 mph 20.7 mph 0.03 in   Overcast
6:56 AM 62.1 °F - 52.0 °F 70% 29.86 in 10.0 mi South 13.8 mph 21.9 mph N/A   Overcast
7:56 AM 64.0 °F - 52.0 °F 65% 29.86 in 9.0 mi South 18.4 mph 25.3 mph 0.00 in Rain Light Rain
8:56 AM 64.9 °F - 52.0 °F 63% 29.86 in 10.0 mi South 15.0 mph 24.2 mph 0.00 in   Overcast
9:56 AM 66.9 °F - 53.1 °F 61% 29.84 in 10.0 mi South 15.0 mph 23.0 mph N/A   Overcast
10:54 AM 60.8 °F - 57.2 °F 88% 29.88 in 3.0 mi West 17.3 mph 27.6 mph 0.00 in Rain Light Rain
10:56 AM 61.0 °F - 57.0 °F 87% 29.88 in 2.5 mi West 18.4 mph 27.6 mph 0.00 in Rain Light Rain
11:17 AM 60.8 °F - 57.2 °F 88% 29.89 in 2.5 mi WSW 18.4 mph 29.9 mph 0.00 in Rain Light Rain
11:44 AM 59.0 °F - 55.4 °F 88% 29.88 in 4.0 mi SW 20.7 mph 26.5 mph 0.01 in Rain Light Rain
11:56 AM 59.0 °F - 54.0 °F 83% 29.88 in 10.0 mi SW 16.1 mph 25.3 mph 0.01 in   Overcast
12:00 PM 59.0 °F - 53.6 °F 82% 29.88 in 10.0 mi SW 13.8 mph 24.2 mph N/A   Mostly Cloudy
12:56 PM 61.0 °F - 54.0 °F 78% 29.87 in 10.0 mi SW 12.7 mph 19.6 mph 0.01 in   Mostly Cloudy
1:56 PM 63.0 °F - 48.0 °F 58% 29.86 in 10.0 mi WSW 20.7 mph 25.3 mph N/A   Mostly Cloudy
2:56 PM 62.1 °F - 43.0 °F 50% 29.89 in 10.0 mi West 24.2 mph 34.5 mph N/A   Mostly Cloudy
3:56 PM 57.0 °F - 44.1 °F 62% 29.94 in 10.0 mi West 21.9 mph 32.2 mph N/A   Mostly Cloudy
4:56 PM 52.0 °F - 37.9 °F 59% 29.99 in 10.0 mi WNW 25.3 mph 34.5 mph N/A   Mostly Cloudy
5:56 PM 48.9 °F - 34.0 °F 56% 30.04 in 10.0 mi West 18.4 mph 31.1 mph N/A   Mostly Cloudy
6:56 PM 48.0 °F - 34.0 °F 58% 30.06 in 10.0 mi West 18.4 mph - N/A   Overcast
7:56 PM 48.0 °F - 33.1 °F 56% 30.09 in 10.0 mi WNW 16.1 mph 27.6 mph N/A   Overcast
8:56 PM 46.9 °F - 34.0 °F 61% 30.11 in 10.0 mi WNW 10.4 mph 19.6 mph N/A   Overcast
9:56 PM 46.0 °F 40.6 °F 34.0 °F 63% 30.13 in 10.0 mi WNW 11.5 mph - N/A   Overcast
10:56 PM 45.0 °F 39.7 °F 34.0 °F 65% 30.14 in 10.0 mi WNW 10.4 mph - N/A   Overcast
11:56 PM 45.0 °F 39.3 °F 33.1 °F 63% 30.16 in 10.0 mi WNW 11.5 mph - N/A   Overcast